sat.trackr.live / text

‹ back to catalog

STARLINK-5291

NORAD 55273 · 2023-010E

PAYLOAD ACTIVE UNKNOWN

§ Identity

Operator
Country
US
Launch date
2023-01-19
Launch site
AFWTR
Launch vehicle
Mass (kg)
RCS (m²)

Purposes: comms

External: N2YO · Heavens-Above · Gunter

§ Orbital elements

Epoch: 2026-09-20T22:00:03.000096Z

Period
95.91 min
Inclination
69.9993°
Eccentricity
0.0004443
Mean motion
15.01472747 rev/d
Perigee alt
559.3 km
Apogee alt
565.4 km
Semi-major
6,940.5 km
B*
1.0212e-2
RAAN
272.0649°
Arg perigee
258.0535°
Mean anomaly
76.5022°
Rev number
576

§ Raw data

STARLINK-52911 55273U 23010E   26263.91670139  .00134726  00000+0  10212-1 0  99922 55273  69.9993 272.0649 0004443 258.0535  76.5022 15.01472747  5760

JSON: /api/v1/satellites/55273 · /tle

For live sub-satellite position, see the globe view (requires WebGL).

§ Visibility from observer

Set your observer location to see the next 7 days of passes ≥ 10°. The values pass through the URL so the page stays shareable.

No JS? Fill the form by hand. The geolocation button needs JavaScript.